星链-2428 (STARLINK-2428 )

导读

STARLINK-2428是美国SpaceX公司星链(Starlink)低轨互联网星座中的一颗卫星,于2021年4月7日发射入轨。作为星链大规模组网的组成部分,它运行于近地轨道,搭载Ku/Ka波段通信载荷与霍尔推进系统,服务于全球宽带互联网覆盖,尤其为偏远地区提供高速低延迟网络接入,是星链星座持续扩展全球通信能力的重要节点。

基本信息
目录编号:
48099
目录名称:
STARLINK-2428
国际标识:
2021-027H
轨道中心:
EARTH
卫星名称:
星链-2428
卫星全名:
星链-2428 (STARLINK-2428 )
卫星状态:
在轨 (已飞行1898 天)
发射日期:
2021-04-07 UTC
国别 :
美国 (US)
星等 :
--
轨道信息
数据来源 国际轨道数据 AOE轨道数据
星历时间 2026-06-18T08:35:48+0800
15小时前
查看轨道信息
2026-06-15T00:00:00+0800
4天前
查看轨道信息
半长轴 6848.894km 6848.787km
偏心率 0.0001416 0.0001361
轨道倾角 53.159° 53.159°
近地点辐角 79.244° 68.699°
升交点赤经 61.021° 76.656°
平近点角 280.872° 123.706°
近地点 469.787km 469.717km
远地点 471.727km 471.583km
周期 94.014分钟 94.011分钟
每日圈数 15.316944 15.317302
详细信息
固有亮度:
5
最大亮度:
2.5
卫星平台:
Starlink V1.0
覆盖范围:
全球
运营商:
太空探索技术公司
运营商所在国:
美国
制造商(研发单位):
太空探索技术公司
制造商所在国:
美国
使用方式:
暂无
卫星简介
星链(Starlink)计划是由太空探索技术公司(SpaceX)提出的一个巨型低轨卫星互联网星座项目,计划在2019年至2024年间在太空搭建由约1.2万颗卫星组成的“星链”网络,其中1584颗将部署在地球上空550千米处的近地轨道,并从2020年开始工作。该卫星仍在工作。
2D轨道图
3D轨道图
轨道高度分析图
轨道倾角分析图
轨道综合分析图
查看轨道综合分析图